Flag for Guinea Weather past 2 weeks in Conakry, Guinea

Now
86 °F

Scattered clouds.


Feels Like: 93 °F
Forecast: 78 / 82 °F
Wind: 12 mph from Northwest

Location: Conakry / Gbessia

Current Time: Apr 26, 2015 at 11:40:24 AM

Latest Report: Apr 26, 2015 at 11:00 AM


Visibility: N/A

Pressure: 29.95 "Hg

Humidity: 66%

Dew point: 73 °F

Location of ConakryLocation

Historic Weather in Conakry — Graph

°F

Conakry temperature yesterday

Maximum temperature yesterday: 91 °F (at 2:00 PM)
Minimum temperature yesterday: 79 °F (at 12:00 AM)
Average temperature yesterday: 83 °F

Past Weeks' High & Low Weather Summary

 TemperatureHumidityPressure
High100 °F (Apr 13, 7:00 PM)100% (Apr 11, 3:00 PM)32.55 "Hg (Apr 11, 3:00 PM)
Low68 °F (Apr 15, 11:00 AM)26% (Apr 22, 5:00 PM)29.77 "Hg (Apr 15, 5:00 PM)
Average82 °F73%29.89 "Hg
* Reported Apr 11 10:00 AM — Apr 26 10:00 AM, Conakry, Weather by CustomWeather, © 2015

Note: Actual official high and low records may vary slightly from our data, if they occured in-between our weather recording intervals... More about our weather records

Advertising

Conakry weather history for previous 24 hours

 ConditionsComfort  
Time TempWeatherWind HumidityBarometerVisibility
10:00 AM
Sun, Apr 26
84 °FPassing clouds.9 mph70%29.92 "HgN/A
9:00 AM82 °FPassing clouds.7 mph74%29.92 "HgN/A
8:00 AM81 °FPassing clouds.7 mph79%29.92 "HgN/A
6:00 AM79 °FPassing clouds.7 mph89%29.89 "HgN/A
5:00 AM77 °FPassing clouds.7 mph94%29.86 "HgN/A
4:00 AM79 °FPassing clouds.5 mph89%29.89 "HgN/A
3:00 AM81 °FPassing clouds.7 mph84%29.89 "HgN/A
2:00 AM81 °FPassing clouds.5 mph84%29.92 "HgN/A
1:00 AM81 °FClear.5 mph84%29.92 "Hg10 mi
12:00 AM81 °FClear.5 mph84%29.92 "Hg10 mi
11:00 PM
Sat, Apr 25
81 °FClear.12 mph84%29.95 "Hg10 mi
10:00 PM82 °FPassing clouds.7 mph79%29.92 "HgN/A
9:00 PM82 °FPassing clouds.7 mph79%29.92 "HgN/A
8:00 PM81 °FPassing clouds.12 mph89%29.89 "HgN/A
7:00 PM82 °FScattered clouds.9 mph79%29.86 "HgN/A
6:00 PM84 °FWarm.12 mph74%29.86 "HgN/A
5:00 PM86 °FScattered clouds.14 mph70%29.86 "HgN/A
4:00 PM88 °FPassing clouds.14 mph62%29.86 "HgN/A
3:00 PM90 °FScattered clouds.12 mph67%29.89 "HgN/A
2:00 PM91 °FPassing clouds.12 mph56%29.92 "HgN/A
1:00 PM90 °FPassing clouds.9 mph59%29.92 "HgN/A
12:00 PM88 °FPassing clouds.12 mph62%29.95 "HgN/A
11:00 AM86 °FPassing clouds.7 mph66%29.95 "HgN/A
Weather by CustomWeather, © 2015

See weather overviewHow to use our weather pages